Dewpoint
52 44 40 38 26 20 20 21 22 25 27 29 39 35 37 44 42 48 58 57 57 58 62 66 68 68 67 67 67 66 66 65 65 65 65 64 64 64 62 64 64 63 64 65 64 64 65 65 66
43 37 36 30 21 15 15 22 19 25 31 35 40 39 37 47 53 57 58 58 59 58 61 63 68 68 68 67 67 66 66 65 63 63 63 64 64 63 63 64 64 65 65 65 65 65 65 64 65
42 35 31 22 16 13 18 20 25 32 32 30 33 39 40 50 53 54 57 58 60 59 59 66 68 68 67 67 67 66 65 65 65 65 64 64 64 64 64 64 65 65 64 64 65 65 65 64 64
33 30 25 17 14 22 19 21 26 33 32 30 30 36 48 56 53 55 58 58 59 59 61 66 68 68 68 67 67 67 66 65 65 65 65 64 64 64 65 65 65 65 65 64 63 64 64 64 64
32 25 13 13 18 20 21 26 27 28 26 26 28 34 46 56 57 57 57 58 58 58 62 64 68 68 68 67 67 67 66 65 65 65 64 64 64 64 65 65 64 63 64 64 64 64 64 64 63
24 21 11 13 17 20 24 26 26 23 22 27 27 34 47 57 57 57 57 57 59 58 61 63 68 68 68 68 68 68 66 66 65 64 63 64 64 64 66 64 63 63 64 64 64 64 64 64 63
28 13 11 13 17 22 24 26 24 23 21 24 28 33 48 55 57 57 56 56 58 60 59 61 63 65 67 67 67 67 67 66 66 65 64 65 65 65 65 64 63 63 64 64 64 64 64 64 63
26 17 13 16 16 19 27 27 27 24 21 32 33 31 44 53 58 57 56 56 56 58 58 59 60 63 63 65 67 67 66 66 66 65 65 65 65 65 65 63 63 64 64 63 63 63 63 64 63
29 13 12 13 14 20 29 28 32 28 28 28 35 36 45 56 58 56 56 56 56 56 57 58 59 60 62 64 65 67 66 66 65 64 63 63 60 61 63 62 63 63 63 61 61 62 60 61 61
19 12 11 14 14 19 28 27 29 26 25 28 37 47 53 57 57 56 56 55 55 55 56 58 59 59 60 62 63 63 64 62 63 63 62 59 58 62 61 60 61 61 60 60 59 58 58 59 56
15 17 12 14 18 21 28 28 27 23 24 23 30 45 56 58 57 58 58 57 56 56 59 58 58 59 61 58 61 61 59 60 60 59 59 58 58 59 61 60 59 60 59 56 57 56 56 56 55
18 13 11 14 24 24 27 28 23 23 23 24 26 42 55 59 58 57 57 57 57 60 60 62 59 60 59 58 58 56 56 57 57 58 59 56 55 56 55 55 56 56 55 53 53 53 53 54 53
17 13 15 22 24 25 26 26 23 23 23 24 24 39 51 56 57 56 56 57 59 59 60 61 61 59 59 58 57 56 55 56 56 57 58 57 55 56 55 55 54 54 54 53 53 52 51 49 49
12 17 20 24 22 21 23 21 21 20 23 22 27 36 45 51 54 56 56 57 59 60 60 61 61 58 59 58 58 56 55 55 56 55 56 56 57 56 56 55 55 54 54 53 53 52 51 49 47
18 19 23 24 24 22 22 20 19 23 25 22 26 31 39 45 50 53 55 55 56 58 58 60 59 58 58 58 58 57 56 56 55 55 56 56 56 56 56 56 55 55 56 56 54 52 51 48 45
17 13 14 19 24 25 23 15 20 27 24 21 23 30 39 43 48 50 53 54 55 55 56 57 57 58 58 58 58 56 56 55 54 55 55 56 56 56 55 55 55 56 56 55 54 51 48 45 42
12 9 10 22 25 25 22 12 24 28 27 23 22 23 33 42 47 49 51 53 54 54 54 57 58 58 58 57 57 56 56 55 55 55 55 57 57 57 56 55 54 56 56 54 53 50 48 44 42
14 12 9 16 24 25 22 21 26 28 27 26 25 26 27 31 45 48 51 53 53 54 54 56 58 58 58 57 57 57 57 56 55 55 56 57 58 58 57 56 55 55 53 53 51 49 47 45 43
18 14 18 15 25 23 21 20 25 27 28 28 27 28 29 27 35 40 41 42 51 53 54 55 57 58 58 57 56 56 56 56 56 56 57 58 58 58 57 56 55 54 53 51 50 48 45 44 43
23 20 17 26 26 25 22 22 24 27 27 28 29 30 32 34 36 39 41 42 41 51 54 55 56 58 58 57 57 56 57 56 56 57 58 58 57 57 55 55 54 53 52 51 50 48 47 45 44
23 22 21 23 26 24 25 24 24 27 29 31 32 34 35 35 36 38 41 43 44 40 54 55 55 57 58 57 58 58 58 57 57 57 57 56 56 55 55 53 52 52 52 51 50 49 48 46 47
21 23 23 27 24 20 23 15 22 26 27 29 32 34 35 37 38 40 42 44 47 48 51 55 56 57 58 58 58 57 57 55 56 56 56 56 55 53 52 52 51 52 52 52 51 48 48 48 47
23 25 25 27 23 24 23 19 14 23 24 27 30 33 35 37 39 41 43 44 46 49 53 56 56 57 57 58 58 58 57 57 57 56 56 55 55 54 53 52 52 52 51 51 51 51 50 49 48
27 26 27 29 28 24 21 19 14 18 19 23 29 33 35 37 40 42 42 43 45 48 50 52 53 55 57 58 58 58 57 56 55 55 52 51 52 51 50 50 50 50 51 51 51 51 51 51 49
25 23 24 23 24 20 19 19 17 20 24 23 29 32 35 38 40 42 41 42 43 45 47 48 49 49 51 52 53 55 55 53 51 49 49 48 49 48 47 47 48 48 48 49 50 50 50 50 50
23 24 28 19 20 19 19 17 16 24 30 29 31 33 35 37 38 41 40 41 41 42 43 44 44 44 44 45 45 46 46 45 45 45 45 44 43 41 40 41 41 42 44 46 47 48 49 49 49
24 22 22 17 14 13 16 15 26 29 29 30 31 33 34 36 37 38 39 39 40 40 40 40 39 39 39 38 37 37 37 36 35 34 34 32 31 29 31 31 30 31 31 33 35 39 41 44 47
25 23 19 17 9 8 10 11 12 26 27 30 31 32 34 34 34 35 35 36 36 36 36 36 35 34 33 32 30 29 27 26 25 24 24 23 24 25 25 25 26 26 27 27 28 30 32 33 36
23 20 18 16 16 10 3 6 14 20 28 29 30 32 32 32 32 32 31 32 32 32 32 31 30 29 27 26 25 24 23 22 22 21 22 23 23 24 24 24 24 24 24 25 26 27 28 32 33
21 17 17 13 12 15 14 9 25 28 29 30 30 31 31 31 30 29 28 28 28 28 28 27 26 24 24 24 24 24 23 23 23 23 23 23 23 25 25 25 25 25 26 27 27 28 29 30 31
Wind_Speed
7 6 5 5 7 9 2 5 3 7 6 4 6 6 10 12 9 5 13 9 17 15 17 14 11 13 12 13 14 13 13 13 14 14 15 15 16 16 16 16 17 17 17 17 18 18 17 17 17
4 4 5 4 9 11 9 6 5 7 8 7 6 2 3 10 10 14 12 14 16 15 15 16 11 13 13 13 14 14 13 13 13 13 14 15 15 15 15 15 16 16 16 17 16 16 16 16 16
6 4 5 5 11 6 7 6 10 9 6 4 4 4 3 7 11 12 17 17 15 13 12 17 13 13 12 13 13 13 14 13 13 13 14 14 15 15 15 15 16 16 16 15 15 15 15 15 15
5 5 5 10 11 4 5 7 11 10 5 2 2 7 6 5 9 9 18 16 15 13 14 14 13 13 12 12 13 13 14 13 13 13 13 13 14 14 15 15 15 15 15 15 14 14 14 14 14
6 5 10 12 4 4 5 7 10 10 9 9 5 6 6 6 10 17 17 15 15 13 16 14 12 13 12 12 12 13 13 13 12 12 12 13 13 13 14 15 14 14 14 14 13 13 13 12 13
6 5 10 14 10 7 6 9 8 6 7 8 6 10 7 11 14 17 15 14 13 13 14 14 12 13 12 11 11 12 13 13 12 12 12 12 12 12 13 13 12 12 12 12 12 13 12 11 10
10 12 14 13 12 9 7 11 10 7 7 8 5 9 9 13 16 17 15 14 13 13 12 13 13 12 11 11 10 11 12 12 12 12 12 11 11 11 12 11 11 12 12 12 12 11 11 11 9
7 8 10 9 13 10 11 12 5 7 8 6 3 6 10 17 19 17 15 14 13 12 12 13 14 12 12 11 11 11 10 10 12 12 12 11 11 9 9 12 10 11 11 11 10 10 9 10 9
3 9 15 14 10 10 14 11 6 3 8 5 7 5 9 22 21 19 16 14 13 12 12 11 12 12 13 13 12 12 11 11 13 11 8 9 4 6 9 12 9 10 10 10 8 7 5 7 8
9 14 16 10 9 9 16 13 12 8 10 8 9 8 19 22 21 20 18 17 15 14 13 11 10 10 10 11 12 11 10 9 9 10 8 3 3 8 10 8 7 7 6 7 6 3 3 8 1
9 15 10 4 4 4 16 12 11 9 12 11 15 16 20 19 19 19 18 16 15 14 9 7 12 10 11 9 8 8 9 7 6 7 4 5 4 8 9 10 7 7 5 2 3 0 4 4 5
10 15 5 6 6 8 15 11 9 11 6 6 5 21 21 21 21 22 21 19 17 12 12 9 10 9 9 9 8 7 7 7 6 5 5 6 4 2 3 3 3 3 2 1 3 3 3 3 3
15 8 7 5 8 7 9 13 9 11 5 4 5 16 20 21 20 18 17 16 15 15 12 12 12 13 9 9 8 7 7 6 6 6 7 3 3 4 3 2 1 1 1 2 3 3 5 5 6
15 8 9 8 10 7 11 8 4 9 5 6 8 14 17 19 20 19 19 19 18 16 15 13 14 13 12 10 8 7 6 5 5 6 7 6 4 4 3 2 1 1 2 3 4 6 6 6 5
8 12 8 10 12 6 7 9 13 9 5 8 12 12 15 17 19 20 19 19 19 18 18 18 17 14 13 11 10 8 7 7 7 6 5 5 5 4 3 3 2 1 1 3 4 4 4 5 5
12 12 11 16 13 7 10 17 17 6 9 11 14 13 13 15 17 16 17 17 18 18 19 18 16 16 14 12 11 9 8 8 7 7 7 6 5 3 3 2 3 1 3 3 4 5 6 5 6
19 16 22 10 16 7 15 11 13 5 9 12 12 12 13 14 14 14 15 16 17 18 19 19 18 17 16 13 11 9 9 8 7 7 6 8 5 4 3 2 1 2 3 3 4 4 3 6 6
23 21 24 18 17 14 17 12 11 6 9 11 11 11 11 13 14 11 12 14 15 16 18 19 18 18 17 13 12 10 9 8 7 7 7 6 6 5 3 0 1 2 3 4 3 5 5 5 7
18 26 18 21 11 16 20 21 13 10 8 10 10 10 10 11 7 5 6 7 10 16 18 19 19 19 17 14 14 12 11 9 7 6 4 5 3 2 0 1 2 2 4 5 5 6 6 7 5
15 21 22 7 8 11 18 20 14 11 11 8 8 9 9 9 9 6 5 6 11 15 17 18 19 19 17 14 12 11 10 9 8 5 4 3 3 3 1 2 2 4 5 5 5 5 7 7 3
16 21 19 9 10 9 7 15 19 13 10 8 7 6 6 8 8 6 4 4 5 12 16 17 18 19 18 15 11 7 8 7 6 7 7 5 4 3 2 3 4 5 5 6 6 6 7 8 9
23 8 7 12 16 9 15 12 28 22 18 15 12 11 9 7 6 4 4 3 2 2 6 15 16 17 17 16 14 14 12 11 9 10 8 7 5 5 4 3 2 1 3 5 7 5 6 7 8
13 13 10 13 15 3 9 8 8 20 19 21 18 13 10 7 5 5 4 3 3 2 1 11 13 14 15 15 15 13 8 12 11 10 10 9 7 8 6 3 2 2 3 4 4 5 5 5 7
21 17 11 6 4 8 16 16 16 13 20 22 19 15 12 9 8 8 7 6 6 5 6 9 13 11 7 11 10 11 15 12 12 10 9 7 7 6 6 3 4 5 5 6 7 8 8 8 8
18 23 8 8 8 13 1 14 14 8 5 7 21 17 13 11 10 10 9 8 8 8 9 9 12 12 12 15 15 15 15 13 13 10 9 8 6 5 6 7 7 7 7 6 6 6 8 8 9
25 27 11 15 14 14 4 10 7 7 5 6 17 16 13 12 11 11 11 11 11 11 12 13 14 15 14 16 17 15 14 13 12 11 9 8 7 6 6 8 7 7 7 7 7 7 7 8 9
19 31 8 3 2 12 11 9 4 7 8 15 19 19 17 14 13 13 13 13 12 13 13 14 16 17 16 16 17 16 14 15 13 11 11 9 8 7 9 9 9 9 10 10 10 8 9 10 10
14 18 14 7 14 11 11 14 15 16 22 22 23 21 19 17 15 14 13 14 13 13 14 15 15 16 15 15 15 15 14 14 13 12 12 10 9 9 8 8 8 9 9 10 10 9 10 11 11
8 19 11 10 13 15 15 11 7 21 27 28 25 23 22 19 17 16 14 14 14 14 15 15 16 16 16 15 15 15 14 13 12 12 11 10 9 8 7 7 7 8 9 10 10 11 11 13 13
24 23 28 17 14 8 8 20 3 3 19 24 23 22 21 20 19 17 16 16 15 15 14 15 14 15 15 14 14 14 13 12 12 11 9 8 7 7 7 8 9 10 11 12 12 12 13 14 14
Wind_Direction
247 235 241 239 240 235 135 131 92 122 135 77 66 18 45 29 10 56 134 135 132 136 127 143 135 125 120 112 114 106 95 100 101 92 89 89 87 85 82 81 77 76 71 70 75 71 70 69 70
211 233 224 265 255 218 141 125 162 102 91 106 109 137 82 74 61 116 131 136 138 135 141 133 134 125 120 119 119 113 106 99 100 99 93 89 88 88 85 82 80 78 76 74 73 72 69 68 68
239 242 234 225 246 271 121 157 113 119 116 130 117 41 39 81 116 126 121 136 137 133 132 117 138 132 124 125 123 124 117 110 103 98 97 95 94 92 90 85 80 77 76 75 73 72 70 68 66
195 203 239 236 211 64 69 132 133 142 115 122 70 104 95 5 121 117 137 141 130 135 114 124 136 133 129 122 130 127 123 116 109 104 100 98 96 95 91 86 82 76 73 72 72 71 71 71 69
214 250 224 228 202 131 118 127 154 159 144 154 176 124 95 121 102 130 140 143 139 138 120 138 141 139 134 130 131 130 129 122 115 108 105 103 100 97 93 86 81 74 72 72 73 71 68 69 68
210 254 223 210 190 153 142 156 166 157 139 125 159 135 108 131 142 140 143 144 143 139 141 136 131 139 136 135 137 136 131 126 119 112 108 103 100 98 93 87 83 79 77 76 74 70 67 74 78
244 208 226 214 170 173 160 165 174 167 154 159 136 154 124 152 147 146 149 139 144 142 148 142 145 138 136 134 129 133 129 128 119 110 103 98 95 93 91 85 78 77 73 72 75 72 72 78 84
263 240 223 219 178 182 154 163 174 175 142 97 185 162 169 156 151 154 150 147 146 154 158 153 147 158 149 139 127 114 116 117 116 106 108 114 106 107 116 110 76 77 78 75 78 76 77 80 79
264 229 214 203 208 151 159 164 175 73 135 172 155 54 123 146 155 156 157 158 156 162 164 156 157 159 146 136 123 115 111 114 121 117 134 165 141 141 108 76 81 78 78 74 71 76 88 112 103
214 225 221 214 202 171 176 184 162 169 163 168 147 114 130 151 162 165 169 171 168 167 167 166 170 160 148 134 160 151 145 156 159 144 181 140 126 53 100 107 114 103 108 113 109 118 210 220 95
201 233 229 194 195 185 175 190 167 193 188 181 181 153 150 164 168 170 177 179 175 167 150 187 172 168 162 168 156 159 169 140 162 155 152 128 136 174 185 157 164 165 193 181 202 24 20 17 0
211 229 271 160 157 169 175 178 190 201 96 48 138 157 162 172 182 181 184 181 177 180 168 186 200 162 187 159 194 170 176 171 164 156 152 170 145 152 156 128 159 184 31 13 3 9 15 344 343
212 195 200 177 156 170 152 181 186 198 140 123 150 161 172 178 186 188 186 181 170 184 181 183 210 176 184 183 195 174 169 191 171 163 163 210 155 164 170 136 170 28 9 5 6 345 338 337 346
202 188 181 173 160 157 176 169 174 167 163 189 166 177 182 182 187 183 184 181 180 184 185 185 203 189 178 188 177 181 175 175 172 175 177 188 186 187 197 159 144 24 348 1 352 351 340 329 333
163 166 173 192 175 160 195 200 210 146 190 182 191 182 187 189 188 185 184 183 183 184 181 183 188 189 181 189 179 180 185 178 181 180 181 197 186 190 220 200 231 275 334 322 316 316 311 312 319
178 203 188 186 179 166 196 224 195 171 190 187 186 181 186 190 190 186 182 183 184 181 180 178 180 184 185 187 182 180 176 192 185 177 177 189 188 200 201 255 248 236 266 302 305 332 326 316 317
191 199 201 158 195 155 193 225 152 182 196 188 181 186 189 180 187 190 187 190 185 184 182 178 180 183 184 182 182 179 175 187 185 184 184 178 184 189 229 223 218 233 276 289 320 308 318 315 315
190 217 199 193 191 196 198 237 150 162 186 184 186 174 181 183 184 176 189 196 197 193 185 183 181 182 181 177 180 181 178 191 189 195 193 176 190 195 236 284 1 324 301 294 286 297 313 309 309
201 203 196 210 162 192 207 217 189 177 176 185 181 180 172 174 141 175 200 220 230 203 193 188 185 183 179 181 184 182 186 187 188 200 194 192 185 167 236 6 352 327 318 325 325 321 310 314 330
215 204 210 91 164 208 210 220 190 191 199 194 189 186 178 181 182 175 192 205 211 214 203 193 189 185 185 182 186 186 185 175 181 157 152 135 128 127 76 2 354 349 332 318 315 317 315 314 328
209 206 199 198 170 209 193 230 201 205 197 189 195 193 192 200 196 186 183 180 200 209 203 200 192 187 183 181 171 160 126 143 140 149 139 139 135 124 90 51 20 1 342 324 330 325 320 319 329
206 209 225 151 169 207 197 241 205 199 203 202 194 194 182 179 179 175 169 135 117 191 237 203 195 188 184 178 168 174 171 166 158 147 128 112 81 83 66 56 30 327 332 329 326 340 326 318 305
210 153 163 184 204 203 200 237 238 188 206 206 196 184 174 163 158 144 115 112 90 118 200 204 189 184 184 179 181 180 162 127 136 128 113 100 87 72 72 50 14 335 323 323 304 304 298 286 282
138 123 111 116 170 232 219 212 236 189 216 207 183 176 165 153 133 110 99 93 84 87 72 72 87 68 141 175 181 167 128 128 117 109 103 94 90 92 59 31 16 348 345 333 323 318 298 284 274
165 161 155 197 210 232 303 219 238 99 78 205 175 170 159 147 137 124 110 97 90 89 93 91 96 86 82 83 79 87 108 117 111 108 112 119 116 78 42 39 32 19 360 341 324 306 294 290 286
193 181 172 197 203 211 151 225 222 118 113 145 156 158 152 147 135 125 112 106 99 94 94 99 98 94 90 93 92 91 96 95 89 91 88 82 80 65 48 44 35 21 7 357 349 331 320 310 301
201 211 220 183 22 221 205 241 178 151 153 153 161 162 162 153 142 131 122 114 108 102 98 98 97 94 92 93 94 91 92 93 95 88 87 84 73 59 42 31 20 12 7 1 352 337 332 327 319
203 175 195 213 191 210 203 226 225 199 195 180 177 175 164 154 146 138 130 123 116 106 102 99 96 96 96 94 93 93 94 93 93 90 85 78 66 49 38 28 16 7 1 356 350 341 336 328 323
163 189 215 215 216 216 227 232 207 214 191 187 181 174 165 160 154 146 136 127 121 116 112 110 107 106 102 100 100 98 95 93 90 85 76 67 60 42 30 16 6 5 1 356 348 341 334 333 328
210 200 197 203 193 231 267 242 36 41 180 176 172 166 166 163 155 149 142 136 129 122 118 114 111 107 105 103 100 94 92 88 83 77 71 62 54 40 22 7 2 1 359 354 348 341 338 329 322